Location: Long Geng
(2.6167°N, 114.1333°E)
Time: 06:03:11
(UTC+00:00)

YAOGAN 6 - Pass Details

Date: 14 May 2021
Orbit: 464 x 502 km, 97.0° (Epoch: 13 June)

Event Time Altitude Azimuth Distance (km) Brightness Sun altitude
Rises 21:48:28 0° 360° (N) 2,556 6.5 -6.6°
Reaches altitude 10° 21:50:36 10° 353° (N) 1,672 5.5 -6.1°
Maximum altitude 21:54:01 41° 281° (W) 708 3.0 -5.3°
Drops below altitude 10° 21:57:24 10° 209° (SSW) 1,657 4.8 -4.5°
Sets 21:59:31 0° 202° (SSW) 2,531 5.8 -4.0°
